Weather History for Jacksonville Craig, FL

Change the Weather History Date:

Saturday, November 3, 2012

  Actual Average Record
Temperature  
Mean Temperature 70 °F -  
Max Temperature 82 °F 74 °F 86 °F (2004)
Min Temperature 57 °F 56 °F 42 °F (1996)
Cooling Degree Days 4    
Growing Degree Days 20 (Base 50)    
Moisture  
Dew Point 56 °F    
Average Humidity 74    
Maximum Humidity 100    
Minimum Humidity 34    
Precipitation  
Precipitation 0.00 in - - ()
Sea Level Pressure  
Sea Level Pressure 30.08 in    
Wind  
Wind Speed 4 mph (WSW)    
Max Wind Speed 8 mph    
Max Gust Speed -    
Visibility 8 miles    
Events Fog    
Averages and records for this station are not official NWS values.
T = Trace of Precipitation, MM = Missing Value Source: NWS Daily Summary

Daily Weather History Graph

Daily Weather History Graph

Search for Another Location

Airport:

Trip Planner

Search our weather history database for the weather conditions in past years. The results will help you decide how hot, cold, wet, or windy it might be!

Date:

Astronomy

Nov. 03, 2012 Rise Set
Actual Time 7:42 AM EDT 6:36 PM EDT
Civil Twilight 7:17 AM EDT 7:01 PM EDT
Nautical Twilight 6:48 AM EDT 7:29 PM EDT
Astronomical Twilight 6:20 AM EDT 7:58 PM EDT
Moon 10:22 PM EDT (11/3) 11:38 AM EDT (11/3)
Length of Visible Light 11h 44m
Length of Day
10h 54m
Waning Gibbous, 80% of the Moon is Illuminated
Nov 3
Waning Gibbous
Nov 6
Last Quarter
Nov 13
New
Nov 20
First Quarter
Nov 28
Full

Hourly Weather History & Observations

Time (EDT) Temp. Dew Point Humidity Pressure Visibility Wind Dir Wind Speed Gust Speed Precip Events Conditions
12:53 AM 64.0 °F 52.0 °F 65% 30.04 in 10.0 mi WSW 8.1 mph - N/A   Clear
1:53 AM 62.1 °F 54.0 °F 75% 30.04 in 10.0 mi WSW 4.6 mph - N/A   Clear
2:53 AM 60.1 °F 54.0 °F 80% 30.04 in 10.0 mi WSW 4.6 mph - N/A   Clear
3:53 AM 61.0 °F 55.9 °F 83% 30.04 in 10.0 mi West 3.5 mph - N/A   Clear
4:53 AM 60.1 °F 55.9 °F 86% 30.04 in 10.0 mi WSW 3.5 mph - N/A   Clear
5:53 AM 59.0 °F 55.0 °F 87% 30.06 in 10.0 mi WSW 3.5 mph - N/A   Clear
6:53 AM 60.1 °F 57.0 °F 90% 30.07 in 9.0 mi WSW 3.5 mph - N/A   Clear
7:53 AM 57.0 °F 55.0 °F 93% 30.09 in 4.0 mi SW 3.5 mph - N/A   Clear
8:13 AM 57.2 °F 55.4 °F 94% 30.10 in 4.0 mi Calm Calm - N/A   Partly Cloudy
8:29 AM 60.8 °F 57.2 °F 88% 30.10 in 1.5 mi Calm Calm - N/A   Mostly Cloudy
8:32 AM 60.8 °F 57.2 °F 88% 30.11 in 0.5 mi WSW 3.5 mph - N/A Fog Fog
8:41 AM 60.8 °F 57.2 °F 88% 30.11 in 0.2 mi WSW 4.6 mph - N/A Fog Fog
8:53 AM 61.0 °F 59.0 °F 93% 30.11 in 0.2 mi West 3.5 mph - N/A Fog Fog
9:14 AM 60.8 °F 60.8 °F 100% 30.12 in 0.8 mi WNW 3.5 mph - N/A   Mist
9:41 AM 62.6 °F 60.8 °F 94% 30.12 in 5.0 mi West 5.8 mph - N/A   Scattered Clouds
9:53 AM 62.1 °F 60.1 °F 93% 30.12 in 7.0 mi West 5.8 mph - N/A   Partly Cloudy
10:53 AM 69.1 °F 59.0 °F 70% 30.13 in 10.0 mi Variable 3.5 mph - N/A   Clear
11:53 AM 73.9 °F 59.0 °F 59% 30.12 in 10.0 mi NNW 3.5 mph - N/A   Clear
12:53 PM 78.1 °F 57.0 °F 48% 30.10 in 10.0 mi NNW 3.5 mph - N/A   Clear
1:53 PM 81.0 °F 52.0 °F 36% 30.08 in 10.0 mi North 6.9 mph - N/A   Clear
2:53 PM 82.0 °F 52.0 °F 35% 30.06 in 10.0 mi NNW 5.8 mph - N/A   Clear
3:53 PM 82.9 °F 52.0 °F 34% 30.05 in 10.0 mi Calm Calm - N/A   Clear
4:53 PM 79.0 °F 54.0 °F 42% 30.05 in 10.0 mi ESE 8.1 mph - N/A   Clear
5:53 PM 75.9 °F 54.0 °F 46% 30.05 in 10.0 mi ESE 4.6 mph - N/A   Clear
6:53 PM 69.1 °F 54.0 °F 58% 30.06 in 10.0 mi SSE 3.5 mph - N/A   Clear
7:53 PM 64.9 °F 55.0 °F 70% 30.07 in 10.0 mi Calm Calm - N/A   Clear
8:53 PM 61.0 °F 55.0 °F 81% 30.08 in 10.0 mi Calm Calm - N/A   Clear
9:53 PM 62.1 °F 55.0 °F 78% 30.08 in 10.0 mi Calm Calm - N/A   Clear
10:53 PM 61.0 °F 55.0 °F 81% 30.09 in 10.0 mi Calm Calm - N/A   Clear
11:53 PM 63.0 °F 57.0 °F 81% 30.08 in 10.0 mi SSW 4.6 mph - N/A   Clear